Tracking 20093 objects as of 14-Dec-2019
HD Live streaming from Space Station
objects crossing your sky now

FENGYUN 1C DEB

Track FENGYUN 1C DEB now!
10-day predictions


NORAD ID: 32123
Int'l Code: 1999-025CRR
Perigee: 591.4 km
Apogee: 844.3 km
Inclination: 99.0 °
Period: 99.0 minutes
Semi major axis: 7088 km
RCS: 0.0018 m2 (small)
Launch date: May 10, 1999
Source: People's Republic of China (PRC)
Launch site: Taiyaun Space Center, China (TSC)

Note: This is SATELLITE DEBRIS
aabbcc
Your satellite tracking list
Your tracking list is empty




NASA's NSSDC Master Catalog

Two Line Element Set (TLE):
1 32123U 99025CRR 19347.91338602 +.00000093 +00000-0 +29350-4 0  9997
2 32123 098.9521 332.7635 0178375 114.3957 278.2116 14.54589278394823
Source of the keplerian elements: AFSPC